Regional Weather Roundup
Issued by NWS

Home | Current Version | Previous Version | Graphics & Text | Print | Product List | Glossary On
Versions: 1 2 3 4 5 6 7 8 9 10 11 12 13 14 15 16 17 18 19 20 21 22 23 24 25 26 27 28 29 30 31 32 33 34 35 36 37 38 39 40 41 42 43 44 45 46 47 48 49 50
000
ASUS43 KLOT 221203
RWRIL

ILLINOIS REGIONAL WEATHER ROUNDUP
NATIONAL WEATHER SERVICE CHICAGO/ROMEOVILLE IL
700 AM CDT SUN APR 22 2018

NOTE: "FAIR" INDICATES FEW OR NO CLOUDS BELOW 12,000 FEET WITH NO
SIGNIFICANT WEATHER AND/OR OBSTRUCTIONS TO VISIBILITY.

* THESE STATIONS ARE NOT UNDER NWS QUALITY CONTROL. THEY ALSO MAY NOT
  REPORT WEATHER SUCH AS PRECIPITATION OR FOG.

ILZ001-002-007-009-015-016-024-221300-
NORTHWEST ILLINOIS

CITY           SKY/WX    TMP DP  RH WIND       PRES   REMARKS
MOLINE         FAIR      46  25  43 E10       30.30R
6HR MIN TEMP:  43; 6HR MAX TEMP:  50;

STERLING*      FAIR      43  27  53 E12       30.34R
SAVANNA*       FAIR      44  26  50 E6        30.35R
$$

ILZ003-004-008-010-011-017-018-221300-
NORTH CENTRAL ILLINOIS

CITY           SKY/WX    TMP DP  RH WIND       PRES   REMARKS
ROCKFORD       MOCLDY    43  21  41 NE5       30.37R
6HR MIN TEMP:  42; 6HR MAX TEMP:  44;

FREEPORT*      FAIR      39  29  66 E5        30.36S
ROCHELLE*      FAIR      42  28  57 NE6       30.35R
DE KALB*       CLOUDY    42  25  51 NE6       30.36R
PERU*          FAIR      45  29  53 E10       30.33R
$$

ILZ005-006-012>014-019>023-221300-
NORTHEAST ILLINOIS

CITY           SKY/WX    TMP DP  RH WIND       PRES   REMARKS
CHICAGO-OHARE  MOCLDY    43  25  49 NE8       30.36R
6HR MIN TEMP:  42; 6HR MAX TEMP:  45;

CHICAGO-MIDWAY PTSUNNY   45  29  53 NE9       30.36R
6HR MIN TEMP:  44; 6HR MAX TEMP:  46;

AURORA         CLOUDY    44  23  43 NE7       30.35R
6HR MIN TEMP:  40; 6HR MAX TEMP:  45;

LANSING*       PTSUNNY   46  32  58 E5        30.36R
JOLIET*        FAIR      47  30  52 NE5       30.35R
WAUKEGAN       FAIR      40  23  50 NE6       30.38R
6HR MIN TEMP:  30; 6HR MAX TEMP:  41;

DUPAGE AIRPORT FAIR      43  23  45 NE6       30.35R
6HR MIN TEMP:  39; 6HR MAX TEMP:  44;

KANKAKEE*      FAIR      44  28  53 E8        30.33R
WHEELING       FAIR      43  23  45 NE8       30.39R
6HR MIN TEMP:  41; 6HR MAX TEMP:  44;

MORRIS*        FAIR      42  29  60 NE3       30.33R
ROMEOVILLE*    FAIR      44  29  57 NE7       30.35R
NORTHERLY ISL    N/A     42  32  67 N7          N/A
$$

LMZ740>746-221300-
SOUTHERN LAKE MICHIGAN

STATION/POSITION SKY/WX   TEMP    WIND        PRES    VSBY  WAVE
                          AIR SEA DIR/SP/G                  HT/PER
                          (F)     (DEG/KT/KT) (MB)    (MI)  (FT/S)
HARRISON CRIB              41     350/  8/  9   N/A
BURNHAM HARBOR             42      10/  6/  7   N/A
CALUMET HARBOR             42      30/  2/  4 1027.1R
BURNS HARBOR               45      90/  4/  8 1028.4R
MICHIGAN CITY              46      60/  9/ 10   N/A
$$

ILZ025>027-034>036-040-047-049-050-058-095>099-221300-
WEST-CENTRAL ILLINOIS

CITY           SKY/WX    TMP DP  RH WIND       PRES   REMARKS
QUINCY         CLOUDY    49  30  48 E13       30.20S
GALESBURG*     FAIR      50  30  45 E12G17    30.28R
MACOMB*        CLOUDY    45  32  59 E7        30.28R
JACKSONVILLE*  CLOUDY    46  32  58 E13       30.23S
PITTSFIELD*    CLOUDY    48  33  56 NE10      30.22R
$$

ILZ028>032-037-038-041>044-048-051>054-059>061-221300-
CENTRAL ILLINOIS

CITY           SKY/WX    TMP DP  RH WIND       PRES   REMARKS
PONTIAC        FAIR      45  33  63 E9        30.33R
BLOOMINGTON    FAIR      43  32  65 NE13      30.29R
DECATUR        CLOUDY    48  31  51 E13       30.26R
PEORIA         FAIR      47  30  51 E12       30.29R
6HR MIN TEMP:  46; 6HR MAX TEMP:  50;

LACON*         FAIR      44  29  55 E12       30.31R
LINCOLN*       CLOUDY    47  34  59 E8        30.27R
SPRINGFIELD    CLOUDY    48  33  56 E9        30.25R
6HR MIN TEMP:  48; 6HR MAX TEMP:  52;

TAYLORVILLE    MOCLDY    48  32  52 NE10      30.25R
6HR MIN TEMP:  48; 6HR MAX TEMP:  53;

$$

ILZ033-039-045-046-055>057-062-063-221300-
EAST-CENTRAL ILLINOIS

CITY           SKY/WX    TMP DP  RH WIND       PRES   REMARKS
CHAMPAIGN      CLOUDY    47  30  51 E12       30.28R
DANVILLE*      FAIR      45  27  49 E9        30.27R
RANTOUL*       FAIR      46  31  56 E14       30.29R
MATTOON        CLOUDY    50  29  44 SE9       30.25R
PARIS*         MOCLDY    46  32  57 E8        30.29R
$$

ILZ079-100>102-221300-
SOUTHWEST ILLINOIS

CITY           SKY/WX    TMP DP  RH WIND       PRES   REMARKS
ALTON          DRIZZLE   50  36  57 E12       30.19S
BELLEVILLE     CLOUDY    51  41  70 E5        30.16S
CAHOKIA*       CLOUDY    51  44  77 NE5       30.16S
SPARTA*        DRIZZLE   50  50 100 E6        30.17R
$$

ILZ064>066-069>071-074>076-080>082-084>086-088>090-092>094-221300-
SOUTH-CENTRAL ILLINOIS

CITY           SKY/WX    TMP DP  RH WIND       PRES   REMARKS
CARBONDALE     LGT RAIN  51  48  89 E3        30.17R
6HR MIN TEMP:  51; 6HR MAX TEMP:  60; 6HR PCP:  0.05;

CAIRO*         RAIN      51  47  87 NE10      30.13S
EFFINGHAM*     LGT RAIN  51  32  48 NE6       30.26R
MARION         CLOUDY    52  50  93 E5        30.18R
MT. VERNON     LGT RAIN  50  40  68 NE5       30.19F
CENTRALIA*     CLOUDY    51  39  63 E9        30.19R
SALEM*         DRIZZLE   52  36  54 E7        30.20S
METROPOLIS*    LGT RAIN  51  46  80 NE6       30.15S
$$

ILZ067-068-072-073-078-083-087-091-221300-
SOUTHEAST ILLINOIS

CITY           SKY/WX    TMP DP  RH WIND       PRES   REMARKS
LAWRENCEVILLE  CLOUDY    52  33  48 NE7       30.25R
FLORA*         RAIN      51  40  65 NE6       30.23S
FAIRFIELD*     LGT RAIN  49  41  72 NE6       30.19S
HARRISBURG*    RAIN      50  46  84 E6        30.19S
ROBINSON*      CLOUDY    48  33  57 NE6       30.27R
CARMI*         CLOUDY    50  45  83 NE3       30.20R
$$

ABBREVIATIONS USED IN REMARKS
   TC - TEMPERATURE IN CELSIUS
  WCI - WIND CHILL INDEX
   HX - HEAT INDEX
  VSB - VISIBILITY
$$




USA.gov is the U.S. government's official web portal to all federal, state and local government web resources and services.